Regional Weather Roundup
Issued by NWS

Home | Current Version | Previous Version | Text Only | Print | Product List | Glossary On
Versions: 1 2 3 4 5 6 7 8 9 10 11 12 13 14 15 16 17 18 19 20 21 22 23 24 25 26 27 28 29 30 31 32 33 34 35 36 37 38 39 40 41 42 43 44 45 46 47 48 49 50
000
ASUS43 KMKX 310221
RWRWI

WISCONSIN REGIONAL WEATHER ROUNDUP
NATIONAL WEATHER SERVICE MILWAUKEE/SULLIVAN WI
900 PM CDT THU JUL 30 2015

NOTE: "FAIR" INDICATES FEW OR NO CLOUDS BELOW 12,000 FEET WITH NO
SIGNIFICANT WEATHER AND/OR OBSTRUCTIONS TO VISIBILITY.

WIZ001-002-006>008-014>016-023>028-310300-
NORTHWEST WISCONSIN

CITY           SKY/WX    TMP DP  RH WIND       PRES   REMARKS
SUPERIOR ARPT  CLEAR     73  56  56 W6        29.92R
ASHLAND        CLEAR     70  56  61 W3        29.91R
HAYWARD        CLEAR     74  54  49 SW5       29.96S
SIREN          CLEAR     72  56  58 W5        29.97S
CUMBERLAND     CLEAR     68  55  64 W5        29.99S
RICE LAKE      CLEAR     70  57  63 W5        30.00S
CHETEK         CLEAR     73  58  59 SW5       29.99S
LADYSMITH      PTCLDY    73  56  56 W7        29.99S
EAU CLAIRE     CLEAR     73  57  57 W7        29.98S
MENOMONIE      CLEAR     75  55  49 W6        29.99F
NEW RICHMOND   CLEAR     71  57  61 W6        30.00S
OSCEOLA        CLEAR     71  59  64 W6        30.01S
$$

WIZ003>005-009-010-017-018-310300-
NORTH CENTRAL WISCONSIN

CITY           SKY/WX    TMP DP  RH WIND       PRES   REMARKS
MANITOWISH WTR PTCLDY    62  62  99 CALM      29.94S
ARBOR VITAE    CLEAR     72  61  69 W5        29.95R
WOODRUFF       CLEAR     72  61  69 W5        29.95R
RHINELANDER    CLEAR     65  59  81 W3        29.96S
EAGLE RIVER    CLEAR     63  62  94 CALM      29.94S
LAND O LAKES   CLEAR     62  59  90 CALM      29.94F
PHILLIPS       CLEAR     69  57  65 SW3       29.96S
TOMAHAWK       CLEAR     63  61  93 CALM      29.97S
MEDFORD        CLEAR     69  58  65 W5        29.99R
MERRILL        NOT AVBL
$$

WIZ029-030-035-036-043>047-310300-
CENTRAL WISCONSIN

CITY           SKY/WX    TMP DP  RH WIND       PRES   REMARKS
WAUSAU         CLEAR     71  57  61 W5        29.95S
MOSINEE        CLEAR     70  57  64 W7        29.98F
MARSHFIELD     CLEAR     71  55  56 W6        29.99S
STEVENS POINT  CLEAR     73  56  54 W3        29.98S
WAUPACA        CLEAR     76  55  48 W6        29.96S
WAUTOMA        CLEAR     75  54  48 W6        29.98S
WISC RAPIDS    CLEAR     73  54  51 W6        29.99S
CAMP DOUGLAS   CLEAR     70  60  70 W10       30.00R
$$

WIZ011>013-019>022-031-037>040-048>050-310300-
NORTHEAST WISCONSIN

CITY           SKY/WX    TMP DP  RH WIND       PRES   REMARKS
ANTIGO         CLEAR     61  59  93 SW3       29.97S
SHAWANO        PTCLDY    71  60  69 CALM      29.95R
OCONTO         CLEAR     64  60  85 CALM      29.92S
STURGEON BAY   CLEAR     66  59  77 W5        29.95S
GREEN BAY      CLOUDY    72  58  61 W5        29.94S
MANITOWOC      MOCLDY    74  58  57 MISG      29.95R
APPLETON       PTCLDY    73  52  46 W6        29.96S
CLINTONVILLE   CLEAR     70  57  64 W5        29.95S
OSHKOSH        CLEAR     75  55  49 W3        29.96R
$$

WIZ032>034-041-042-053>061-310300-
SOUTHWEST WISCONSIN

CITY           SKY/WX    TMP DP  RH WIND       PRES   REMARKS
LA CROSSE      CLEAR     78  59  51 W7        30.00S
SPARTA         CLEAR     73  55  53 CALM      30.02R
VIROQUA        CLEAR     69  58  68 SW7       30.04S
BOSCOBEL       CLEAR     70  60  70 CALM      30.02S
PRAIRIE DU CHI CLEAR     74  57  55 CALM      30.03R
PLATTEVILLE    CLEAR     71  61  70 W7        30.04S
$$

WIZ056-057-062-063-064-067-068-310300-
SOUTH CENTRAL WISCONSIN

CITY           SKY/WX    TMP DP  RH WIND       PRES   REMARKS
REEDSBURG      CLEAR     74  57  54 W7        30.00S
BARABOO/DELLS  CLEAR     73  53  48 W3        30.01R
LONE ROCK      CLEAR     73  57  57 W3        30.02R
MINERAL POINT  CLEAR     70  57  64 W5        30.04S
MADISON        CLEAR     76  55  48 CALM      30.00R
MIDDLETON      CLEAR     71  54  54 W5        30.02R
WATERTOWN      CLEAR     73  58  58 W6        29.99R
MONROE         CLEAR     73  57  56 W13       30.03R
JANESVILLE     CLEAR     75  55  50 W7        30.00R
$$

WIZ051-052-058>065-066-070>072-310300-
SOUTHEAST WISCONSIN

CITY           SKY/WX    TMP DP  RH WIND       PRES   REMARKS
MILWAUKEE      CLEAR     81  52  36 W7        29.97S HX  80
WAUKESHA       CLEAR     73  54  49 W5        29.99S
MILWAUKEE/TIMM NOT AVBL
RACINE         CLEAR     77  54  44 CALM      29.99S
BURLINGTON     CLEAR     69  55  59 W3        29.99R
KENOSHA        CLEAR     69  56  62 W6        29.98S
FOND DU LAC    CLEAR     75  56  51 W6        29.97R
SHEBOYGAN      CLEAR     71  58  63 W5        29.95R
WEST BEND      CLEAR     73  50  43 CALM      29.97S
JUNEAU         CLEAR     72  56  57 W7        30.00R
$$

LSZ147-162-310300-
LAKE SUPERIOR

STATION/POSITION TIME  TEMP    WIND        PRES    WAVE
                       AIR SEA DIR/SP/G            HT/PER
                 (UTC) (F)     (DEG/KT/KT) (MB)    (FT/S)
W MID LAKE BUOY  0150   60 54  220/ 10/ 12 1010.3F   2/ 4
DEVILS ISLAND    0200   66     260/ 16/ 18 1011.5R
PORT WING        0100   74     240/ 11/ 15 1012.2S
SAXON HARBOR     0140   69                 1011.9S
$$

LMZ867-665-643>646-310300-
LAKE MICHIGAN

STATION/POSITION TIME  TEMP    WIND        PRES    WAVE
                       AIR SEA DIR/SP/G            HT/PER
                 (UTC) (F)     (DEG/KT/KT) (MB)    (FT/S)
CHAMBERS ISLAND  0100   68     210/  4/  7 1012.9S
S GREEN BAY BUOY 0200   69 70  290/  2/  4 1014.9R
N MID LAKE BUOY  0150   72 69  250/ 14/ 16 1011.3S   2/ 5
NORTHPORT PIER   0100   75     280/  8/ 16 1012.2R
SISTER BAY       0144   73     300/ 13/ 14   N/A
ALGOMA LAKESHORE 0112          330/  9/ 12   N/A
KEWAUNEE LAKESHO 0200   73     330/  2/  3 1013.2R
SHEBOYGAN LAKESH 0200   80     270/  7/  9 1014.0R
PORT WASHINGTON  0100   82     250/  5/  7 1014.6S
ATWATER BUOY     0200   74 63  270/  8/  8 1016.1R
MILWAUKEE LAKESH 0200   81     290/  7/ 11   N/A
KENOSHA   LAKESH 0200   81     260/  5/  8 1014.6R
$$

TC  - TEMPERATURE IN CELSIUS
VSB - VISIBILITY IN STATUTE MILES
WCI - WIND CHILL INDEX
HX  - HEAT INDEX



USA.gov is the U.S. government's official web portal to all federal, state and local government web resources and services.